User: anonymous   Login
Location: Dallas
(32.7833°N, 96.8000°W)
Time: 06:15:24
(UTC-06:00)
Language:

N. Korean satellite - Orbit

View from above orbital plane
View from above orbital plane
View from above satellite
View from above satellite

Ground track
Ground track

The orbit data is extracted from the following two-line orbital elements,

1 39026U 12072A   21020.92379631  .00001584  00000-0  57021-4 0  9994
2 39026  97.2357  17.5411 0036028 187.3845 172.6870 15.29467673450470
Epoch (UTC): 20 January 2021 22:10:16
Eccentricity: 0.0036028
inclination: 97.2357°
perigee height: 453 km
apogee height: 502 km
right ascension of ascending node: 17.5411°
argument of perigee: 187.3845°
revolutions per day: 15.29467673
mean anomaly at epoch: 172.6870°
orbit number at epoch: 45047

The dashed part of the orbit path shows where the satellite is in the earth's shadow,  

DLR